Laramie, WY

7:56 PM MDT on April 23, 2018 (GMT -0600)
Laramie Regional

Weather History for KLAR - November, 2010

Change the Weather History Date:

Monday, November 8, 2010

  Actual Average Record
Temperature  
Mean Temperature 47 °F 33 °F  
Max Temperature 64 °F 45 °F 65 °F (1978)
Min Temperature 30 °F 21 °F -2 °F (1948)
Degree Days  
Heating Degree Days 18 32  
Month to date heating degree days 178 244  
Since 1 July heating degree days 1133 1487  
Cooling Degree Days 0 0  
Month to date cooling degree days 0 0  
Year to date cooling degree days 73 67  
Moisture  
Dew Point 21 °F    
Average Humidity 36    
Maximum Humidity 56    
Minimum Humidity 16    
Precipitation  
Precipitation 0.00 in 0.02 in 0.40 in (1983)
Month to date precipitation T 0.17  
Year to date precipitation 10.09 10.23  
Sea Level Pressure  
Sea Level Pressure 29.63 in    
Wind  
Wind Speed 10 mph (SSW)    
Max Wind Speed 29 mph    
Max Gust Speed 40 mph    
Visibility 10 miles    
Events      
T = Trace of Precipitation, MM = Missing Value Source: NWS Daily Summary

Daily Weather History Graph

Daily Weather History Graph

Search for Another Location

Airport or City:

Astronomy

Nov. 08, 2010 Rise Set
Actual Time 6:42 AM MST 4:49 PM MST
Civil Twilight 6:13 AM MST 5:18 PM MST
Nautical Twilight 5:40 AM MST 5:51 PM MST
Astronomical Twilight 5:07 AM MST 6:24 PM MST
Moon 9:34 AM MST (11/8) 6:47 PM MST (11/8)
Length of Visible Light 11h 05m
Length of Day
10h 07m
Waxing Crescent, 8% of the Moon is Illuminated
Nov 8
Waxing Crescent
Nov 13
First Quarter
Nov 21
Full
Nov 28
Last Quarter
Dec 5
New

Hourly Weather History & Observations

Time (MST) Temp. Windchill Dew Point Humidity Pressure Visibility Wind Dir Wind Speed Gust Speed Precip Events Conditions
12:53 AM 44.1 °F 39.5 °F 21.9 °F 42% 29.76 in 10.0 mi SSW 8.1 mph - N/A   Clear
1:53 AM 41.0 °F 33.5 °F 21.9 °F 47% 29.78 in 10.0 mi SW 13.8 mph - N/A   Clear
2:53 AM 45.0 °F 37.1 °F 21.0 °F 39% 29.71 in 10.0 mi SW 19.6 mph 32.2 mph N/A   Clear
3:53 AM 43.0 °F 36.0 °F 19.9 °F 40% 29.71 in 10.0 mi SSW 13.8 mph 23.0 mph N/A   Clear
4:53 AM 39.0 °F 34.8 °F 18.0 °F 43% 29.75 in 10.0 mi WSW 5.8 mph - N/A   Clear
5:53 AM 35.1 °F 28.6 °F 19.0 °F 52% 29.77 in 10.0 mi SSE 8.1 mph - N/A   Clear
6:53 AM 33.8 °F 27.7 °F 19.4 °F 56% 29.87 in 10.0 mi South 6.9 mph - N/A   Clear
7:53 AM 37.9 °F 32.7 °F 21.0 °F 51% 29.78 in 10.0 mi SSE 6.9 mph - N/A   Clear
8:53 AM 50.0 °F - 19.9 °F 31% 29.70 in 10.0 mi South 4.6 mph - N/A   Clear
9:53 AM 55.0 °F - 21.0 °F 27% 29.66 in 10.0 mi Calm Calm - N/A   Clear
10:53 AM 60.1 °F - 17.1 °F 19% 29.57 in 10.0 mi SSW 23.0 mph 27.6 mph N/A   Clear
11:53 AM 62.1 °F - 15.1 °F 16% 29.53 in 10.0 mi SSW 27.6 mph 40.3 mph N/A   Clear
12:53 PM 64.4 °F - 17.6 °F 16% 29.76 in 10.0 mi SSW 20.7 mph 25.3 mph N/A   Clear
1:53 PM 63.0 °F - 18.0 °F 18% 29.50 in 10.0 mi SW 18.4 mph 26.5 mph N/A   Clear
2:53 PM 62.1 °F - 19.0 °F 19% 29.48 in 10.0 mi SW 20.7 mph 29.9 mph N/A   Clear
3:53 PM 55.9 °F - 21.0 °F 26% 29.51 in 10.0 mi SSW 11.5 mph 20.7 mph N/A   Partly Cloudy
4:53 PM 52.0 °F - 21.9 °F 31% 29.54 in 10.0 mi WSW 9.2 mph - N/A   Partly Cloudy
5:53 PM 48.0 °F - 24.1 °F 39% 29.60 in 10.0 mi SSW 3.5 mph - N/A   Overcast
6:53 PM 48.0 °F - 25.0 °F 41% 29.60 in 10.0 mi West 5.8 mph - N/A   Overcast
7:53 PM 44.1 °F 40.8 °F 26.1 °F 49% 29.58 in 10.0 mi East 5.8 mph - N/A   Mostly Cloudy
8:53 PM 42.1 °F 39.2 °F 26.1 °F 53% 29.52 in 10.0 mi WSW 4.6 mph - N/A   Mostly Cloudy
9:53 PM 43.0 °F 41.3 °F 24.1 °F 47% 29.47 in 10.0 mi SSW 3.5 mph - N/A   Partly Cloudy
10:53 PM 41.0 °F 39.0 °F 24.1 °F 51% 29.44 in 10.0 mi SW 3.5 mph - N/A   Clear
11:53 PM 37.0 °F 33.3 °F 24.1 °F 59% 29.45 in 10.0 mi West 4.6 mph - N/A   Clear